Wind_Speed
1 5 4 1 1 1 2 3 5 2 1 4 2 5 10 13 12 12 10 9 8 5 3 2 3 4 6 8 10 12 14 16 16 16 18 18 18 17 16 16 19 20 20 20
4 4 2 5 4 4 3 5 6 1 0 4 4 10 10 15 14 14 13 11 8 5 3 2 2 3 4 6 8 10 13 15 16 16 18 18 18 18 19 17 18 18 19 20
4 4 6 4 5 5 4 7 4 3 1 2 7 9 12 15 13 14 13 11 9 8 6 5 6 6 6 7 9 10 12 15 16 15 17 20 20 20 20 19 20 19 21 20
1 2 6 5 5 4 6 2 1 3 4 5 2 5 8 13 15 17 17 14 11 9 8 7 9 10 11 10 11 11 13 17 17 18 21 24 25 26 24 24 23 23 21 20
4 3 5 6 1 2 3 1 3 4 6 6 6 5 4 9 14 16 19 15 12 10 8 7 8 10 10 11 13 16 15 20 21 24 25 25 26 27 28 27 28 26 25 23
2 1 1 2 2 1 3 3 1 1 3 5 5 4 4 6 8 13 18 15 12 10 8 6 6 7 8 9 13 15 21 23 26 27 27 27 29 30 32 31 32 32 29 27
3 3 2 1 4 4 4 5 3 4 4 3 4 5 9 3 6 11 19 16 13 9 5 4 6 8 10 11 15 19 24 28 28 29 29 29 30 30 32 32 33 34 33 31
5 5 2 3 2 2 0 3 4 5 4 4 3 6 0 1 5 11 16 14 10 7 5 6 8 10 12 15 19 25 27 30 30 29 29 29 30 31 32 31 32 33 32 32
3 3 2 4 2 3 4 4 3 3 1 4 3 5 7 4 9 14 16 14 10 6 5 9 10 12 15 19 24 27 29 31 30 30 31 31 31 31 32 32 33 35 35 35
2 3 1 3 1 4 4 3 3 3 4 5 4 6 8 9 13 13 16 18 13 7 6 10 12 15 19 23 27 27 29 31 31 31 31 32 32 32 32 33 34 32 32 33
0 2 4 2 6 4 3 3 2 3 4 4 7 4 3 1 5 12 17 18 16 12 10 11 14 19 23 25 27 29 30 31 32 32 32 32 33 33 33 34 34 32 35 36
1 2 4 1 3 2 3 3 5 4 4 3 4 9 3 2 3 6 11 14 17 15 12 14 18 22 25 27 29 30 31 31 30 32 33 34 34 34 35 35 35 35 35 34
2 2 3 4 3 2 6 5 5 2 1 10 8 7 3 3 1 4 8 13 16 15 16 18 20 23 26 29 30 30 29 31 31 31 32 33 33 33 35 35 34 34 34 34
1 3 6 7 3 1 4 7 10 10 5 10 14 22 18 9 7 11 12 13 14 18 16 18 21 24 27 29 29 29 29 29 30 30 32 33 34 34 35 35 35 35 34 34
2 5 4 10 9 8 11 14 11 17 21 11 22 19 20 17 18 20 12 9 10 14 16 19 22 26 28 29 29 29 29 29 29 32 33 35 36 36 37 37 35 35 34 34
2 2 2 5 1 4 11 17 18 22 23 23 26 26 21 14 3 6 5 9 13 15 18 21 25 27 28 29 30 29 29 30 31 33 34 37 40 40 40 40 38 37 36 34
3 2 2 5 2 7 11 18 15 11 13 12 14 11 6 6 10 12 12 12 13 15 18 23 25 26 27 28 28 29 30 33 33 37 37 40 37 38 43 45 39 37 36 34
3 3 2 5 8 7 4 6 6 10 13 11 17 17 16 15 13 14 13 12 12 16 22 24 24 25 26 26 27 28 34 34 37 40 39 40 40 45 47 46 46 38 42 31
2 4 3 4 4 15 13 4 0 2 8 9 14 14 14 10 8 16 6 5 12 18 21 22 23 24 26 26 27 33 35 36 36 40 38 44 43 49 48 46 50 40 29 31
3 3 4 2 4 5 5 4 3 2 9 4 5 11 14 5 11 10 2 12 17 19 20 23 23 24 25 27 28 31 33 39 37 37 45 45 47 43 46 46 37 35 30 30
4 5 9 9 6 9 9 5 4 4 9 5 7 13 8 9 12 14 13 15 17 19 21 22 21 23 24 27 28 33 34 37 39 43 46 46 43 43 43 36 32 28 28 24
7 6 5 4 6 9 11 10 5 12 10 9 10 11 12 13 14 14 14 15 17 18 20 19 21 22 26 25 30 31 38 38 41 44 45 42 40 42 39 31 28 24 23 23
6 8 3 10 6 4 13 18 17 15 19 21 17 16 13 13 13 12 15 16 17 18 18 19 21 24 25 25 29 33 35 43 43 44 45 41 41 39 37 34 31 24 22 22
6 8 5 6 8 19 23 21 24 22 24 23 19 16 13 12 10 11 12 14 15 16 19 20 22 24 26 26 29 32 39 38 44 45 42 44 43 39 36 35 30 26 24 23
4 5 11 21 20 24 23 16 20 23 20 20 18 15 13 12 11 11 11 13 14 16 17 20 22 24 26 27 32 31 38 39 41 42 44 43 42 40 37 34 34 26 22 21
15 15 11 16 26 27 31 31 28 27 22 20 17 13 13 13 11 12 11 12 13 15 18 20 22 23 26 28 31 34 38 41 40 43 44 43 40 39 39 36 31 24 19 19
Wind_Direction
45 232 233 203 171 150 189 231 259 251 21 288 242 201 189 187 193 191 187 182 177 167 153 116 66 44 36 25 21 16 8 5 359 358 353 350 344 339 335 328 320 315 311 308
208 246 116 126 152 174 213 255 257 182 139 281 263 258 203 194 201 198 194 196 195 195 202 229 308 331 341 353 356 356 352 350 346 342 339 335 329 324 323 324 320 318 311 305
268 88 144 182 176 216 229 263 259 303 250 241 293 255 200 207 206 203 209 210 213 221 240 261 276 287 302 308 316 329 336 338 332 322 322 321 317 312 310 310 311 310 309 305
282 103 198 203 225 249 267 151 172 276 291 289 308 305 194 195 209 211 211 212 220 230 250 271 285 282 279 287 295 310 321 327 328 324 319 313 308 304 302 301 301 301 297 297
104 170 176 216 301 223 33 5 301 278 262 294 182 241 123 188 216 213 212 214 224 228 232 267 284 287 291 277 294 306 315 318 317 315 312 307 302 299 296 293 295 296 294 288
95 49 335 28 98 53 123 216 208 187 212 238 139 233 207 187 232 205 204 205 204 205 236 269 293 314 315 297 304 307 309 312 312 310 308 302 300 298 292 288 287 290 287 286
163 162 104 357 220 186 236 256 240 212 210 355 150 221 278 227 222 203 186 191 190 200 233 282 317 326 321 312 310 313 311 310 311 308 303 300 297 295 291 288 286 287 284 281
226 191 197 11 344 356 69 291 303 290 288 345 159 236 117 359 191 180 180 184 194 213 243 298 312 317 316 314 313 313 310 309 308 306 303 301 298 294 289 288 285 283 282 279
222 164 130 43 5 311 129 227 19 283 219 261 217 241 195 175 169 178 188 195 201 223 267 293 294 303 307 308 309 310 309 307 306 305 303 301 297 293 290 287 286 282 279 279
118 226 163 113 228 68 280 106 227 192 271 267 213 274 270 193 199 201 208 214 216 240 294 291 292 300 306 307 307 310 309 306 305 304 302 300 297 294 290 288 286 283 281 280
232 287 114 205 203 193 158 206 210 297 267 287 298 279 48 336 217 217 225 230 231 245 289 300 302 306 308 308 309 310 310 308 307 305 303 301 298 295 291 288 286 281 283 282
38 305 245 256 111 344 291 262 237 252 195 244 300 273 109 261 275 258 246 243 236 248 293 302 307 310 310 310 311 309 308 307 307 305 303 300 298 296 292 289 286 285 285 280
161 197 268 185 180 181 233 206 237 196 268 237 270 272 150 142 208 246 256 271 241 258 294 302 307 309 309 310 310 310 310 309 307 307 305 303 301 300 297 293 288 285 282 278
208 267 263 275 352 32 222 212 212 219 240 270 235 278 287 261 284 293 286 274 259 283 292 302 305 308 311 310 310 310 309 309 310 311 309 306 306 305 302 297 293 289 285 280
257 259 253 271 274 257 264 260 226 225 239 252 270 282 285 302 313 307 301 278 273 287 298 305 308 312 312 312 312 311 310 311 312 309 309 308 306 304 302 298 295 292 287 282
191 266 294 283 212 255 269 269 250 245 256 263 266 278 287 292 317 313 294 288 290 297 307 310 314 315 314 313 313 311 310 310 310 309 308 308 304 304 304 303 297 292 287 284
217 243 288 278 317 291 267 254 248 232 235 250 255 286 348 291 309 298 301 292 295 303 310 315 314 312 311 312 311 310 309 309 309 310 308 308 309 306 308 307 299 296 289 285
192 206 243 285 305 263 17 263 262 267 265 248 261 278 292 299 297 286 283 282 299 310 315 314 312 311 311 312 311 311 314 312 307 309 308 312 310 312 310 304 303 285 289 287
282 235 253 272 253 298 284 95 153 242 303 283 250 271 292 305 303 292 227 271 308 312 312 311 311 311 312 313 313 313 315 313 308 311 312 311 313 313 310 308 306 294 281 288
162 236 238 211 256 270 17 99 133 178 290 98 202 309 310 276 290 323 307 307 311 314 314 313 314 313 313 313 314 313 311 315 315 317 320 317 319 315 317 316 305 305 296 288
179 208 231 232 258 273 271 183 159 263 331 345 321 319 282 259 289 302 302 306 309 312 313 314 313 310 309 315 316 314 316 319 322 322 323 320 323 321 321 315 309 301 289 292
192 191 209 201 219 271 158 145 218 316 302 296 292 287 264 261 280 286 295 304 309 310 314 314 313 311 317 318 318 319 321 326 324 324 321 325 328 328 324 318 309 305 292 287
242 220 237 207 225 349 205 264 285 285 288 292 289 291 261 266 272 285 300 307 308 312 313 315 314 316 318 321 321 321 321 330 326 327 323 330 332 332 330 319 314 297 289 282
246 226 255 295 234 268 279 279 281 286 281 291 283 277 260 260 262 279 296 304 308 314 317 321 318 318 320 323 323 326 333 325 333 326 330 333 332 330 328 328 320 303 289 284
347 173 258 271 281 272 276 292 304 305 300 295 286 266 251 251 268 284 299 307 313 316 320 320 319 319 319 325 329 329 335 332 334 335 335 334 334 329 328 326 322 318 299 293
231 252 252 269 301 313 303 308 306 297 294 291 274 255 260 267 277 295 304 311 316 317 318 319 320 319 321 330 329 331 337 339 340 336 333 336 332 334 333 326 324 328 311 296
Height
1546 1543 1540 1543 1546 1547 1548 1548 1549 1550 1555 1554 1553 1553 1559 1564 1565 1565 1566 1567 1568 1568 1568 1567 1566 1566 1565 1563 1561 1559 1556 1554 1552 1549 1547 1544 1541 1539 1535 1532 1528 1524 1521 1518
1545 1541 1546 1548 1549 1549 1549 1548 1546 1552 1555 1553 1548 1548 1554 1559 1560 1562 1563 1564 1566 1567 1567 1567 1566 1565 1564 1563 1560 1558 1556 1553 1551 1548 1545 1543 1540 1536 1532 1528 1525 1522 1518 1515
1542 1546 1549 1549 1549 1549 1547 1547 1547 1550 1553 1554 1552 1539 1548 1555 1558 1559 1561 1562 1564 1565 1565 1565 1565 1563 1561 1560 1558 1556 1554 1551 1549 1546 1542 1539 1536 1533 1530 1526 1522 1518 1514 1511
1545 1549 1549 1549 1548 1549 1548 1551 1552 1554 1552 1545 1552 1534 1540 1544 1552 1554 1557 1559 1560 1562 1562 1563 1561 1560 1559 1558 1555 1553 1551 1549 1546 1543 1539 1536 1531 1527 1524 1520 1516 1512 1510 1507
1545 1548 1549 1549 1548 1551 1550 1555 1554 1553 1550 1552 1549 1549 1521 1541 1546 1546 1550 1554 1557 1559 1560 1560 1559 1557 1555 1553 1551 1549 1547 1545 1542 1539 1535 1530 1526 1522 1517 1514 1510 1507 1503 1501
1548 1552 1551 1550 1553 1553 1556 1554 1555 1554 1551 1547 1537 1543 1508 1534 1531 1536 1544 1550 1553 1555 1557 1556 1555 1553 1551 1550 1547 1545 1543 1540 1537 1533 1529 1525 1519 1514 1509 1506 1502 1499 1496 1493
1549 1550 1554 1554 1551 1553 1552 1550 1538 1541 1544 1528 1545 1546 1513 1525 1531 1531 1538 1545 1549 1551 1553 1552 1551 1549 1547 1546 1544 1541 1538 1534 1530 1526 1522 1517 1512 1507 1502 1497 1494 1490 1487 1485
1542 1548 1553 1556 1552 1549 1552 1551 1540 1542 1530 1526 1553 1537 1514 1531 1533 1534 1538 1542 1546 1547 1548 1547 1546 1544 1543 1541 1539 1536 1532 1527 1523 1518 1514 1509 1504 1499 1494 1489 1485 1481 1478 1475
1544 1547 1556 1556 1556 1556 1552 1549 1554 1548 1555 1548 1520 1522 1522 1531 1533 1535 1537 1540 1542 1543 1543 1543 1543 1541 1539 1537 1534 1530 1526 1521 1516 1511 1506 1501 1496 1491 1485 1481 1477 1472 1469 1466
1553 1546 1555 1556 1557 1557 1554 1556 1551 1547 1542 1535 1516 1525 1509 1526 1528 1532 1533 1535 1537 1539 1539 1539 1539 1537 1535 1531 1528 1524 1519 1513 1508 1503 1498 1492 1486 1482 1477 1472 1467 1463 1459 1456
1557 1554 1555 1557 1553 1546 1556 1551 1554 1552 1546 1532 1526 1509 1509 1514 1518 1523 1527 1530 1533 1535 1536 1535 1534 1532 1529 1525 1521 1517 1511 1506 1500 1494 1488 1483 1477 1472 1467 1462 1457 1453 1449 1446
1560 1554 1544 1543 1556 1558 1555 1549 1546 1543 1538 1545 1549 1525 1516 1519 1521 1522 1523 1526 1529 1532 1532 1530 1528 1526 1523 1519 1515 1510 1504 1498 1492 1486 1480 1474 1468 1463 1457 1452 1448 1444 1440 1436
1560 1552 1540 1543 1556 1558 1553 1551 1551 1554 1554 1543 1536 1512 1516 1519 1521 1522 1524 1525 1526 1529 1527 1525 1523 1520 1517 1512 1507 1502 1496 1490 1484 1477 1471 1464 1458 1453 1447 1442 1437 1433 1430 1425
1562 1556 1547 1535 1540 1547 1547 1550 1551 1546 1546 1525 1523 1504 1505 1511 1516 1520 1522 1523 1524 1524 1523 1521 1518 1515 1511 1506 1500 1494 1488 1482 1475 1469 1462 1456 1450 1444 1438 1433 1428 1423 1419 1415
1561 1552 1554 1546 1549 1552 1547 1543 1545 1544 1528 1529 1505 1506 1504 1507 1511 1514 1516 1518 1519 1519 1518 1516 1513 1509 1503 1498 1492 1486 1480 1474 1468 1462 1455 1448 1442 1436 1429 1423 1418 1414 1409 1405
1562 1552 1558 1547 1554 1554 1549 1538 1535 1534 1529 1524 1515 1515 1511 1510 1512 1513 1514 1515 1515 1514 1513 1511 1507 1501 1496 1491 1485 1479 1473 1468 1462 1454 1447 1439 1431 1425 1419 1413 1408 1403 1398 1394
1559 1557 1556 1541 1551 1548 1534 1517 1517 1516 1519 1517 1514 1502 1509 1510 1512 1512 1512 1512 1511 1511 1509 1505 1500 1496 1491 1485 1479 1473 1467 1460 1453 1445 1438 1430 1422 1416 1408 1401 1395 1391 1387 1383
1558 1557 1558 1550 1545 1534 1514 1517 1518 1515 1512 1514 1513 1509 1509 1509 1510 1510 1509 1509 1508 1506 1503 1499 1495 1490 1485 1479 1473 1467 1459 1452 1445 1438 1430 1422 1414 1404 1396 1389 1382 1377 1374 1371
1561 1557 1554 1553 1542 1520 1508 1515 1518 1518 1508 1506 1508 1507 1507 1507 1508 1504 1505 1505 1504 1501 1498 1493 1488 1483 1478 1472 1467 1460 1452 1446 1439 1431 1423 1413 1405 1394 1386 1378 1371 1365 1361 1359
1563 1561 1555 1557 1553 1531 1506 1519 1521 1522 1510 1502 1506 1506 1505 1507 1500 1499 1503 1502 1499 1496 1492 1487 1482 1477 1472 1467 1461 1455 1447 1440 1432 1424 1414 1404 1395 1386 1376 1368 1361 1357 1353 1350
1554 1555 1551 1544 1548 1525 1511 1518 1520 1517 1505 1503 1504 1503 1504 1503 1501 1500 1499 1497 1495 1490 1486 1481 1477 1472 1467 1460 1455 1448 1441 1433 1425 1415 1406 1396 1386 1377 1368 1360 1354 1349 1345 1341
1540 1543 1542 1540 1545 1528 1510 1518 1516 1502 1501 1502 1501 1500 1499 1499 1498 1496 1494 1492 1489 1485 1481 1477 1472 1467 1461 1456 1450 1443 1436 1427 1418 1408 1398 1388 1378 1369 1360 1353 1347 1342 1340 1337
1536 1523 1519 1522 1514 1508 1508 1502 1501 1499 1497 1497 1497 1496 1494 1494 1493 1492 1489 1487 1484 1480 1476 1472 1468 1461 1457 1452 1446 1438 1430 1421 1411 1400 1390 1379 1370 1361 1353 1345 1340 1336 1334 1331
1527 1527 1526 1518 1503 1503 1499 1498 1497 1497 1494 1492 1490 1489 1489 1488 1488 1487 1485 1482 1479 1476 1471 1467 1462 1457 1452 1448 1442 1435 1424 1414 1404 1393 1383 1372 1363 1354 1347 1340 1334 1331 1327 1324
1524 1527 1511 1495 1499 1496 1495 1495 1494 1491 1488 1486 1484 1483 1483 1483 1483 1482 1480 1478 1474 1471 1467 1463 1458 1453 1447 1441 1435 1429 1419 1409 1399 1387 1377 1367 1358 1348 1340 1334 1328 1324 1320 1318
1518 1510 1508 1490 1495 1495 1491 1493 1493 1488 1484 1482 1480 1479 1478 1478 1478 1477 1475 1472 1470 1467 1463 1459 1454 1448 1442 1437 1430 1423 1413 1404 1394 1383 1373 1363 1353 1343 1334 1327 1320 1318 1314 1311